Year,Month,Day,Hour,Minute,Value (Times are PST for temperature in C)
2012,07,06,00,00,14.70
2012,07,06,00,01,14.70
2012,07,06,00,02,14.60
2012,07,06,00,03,14.60
2012,07,06,00,04,14.60
2012,07,06,00,05,14.60
2012,07,06,00,06,14.60
2012,07,06,00,07,14.60
2012,07,06,00,08,14.50
2012,07,06,00,09,14.50
2012,07,06,00,10,14.50
2012,07,06,00,11,14.40
2012,07,06,00,12,14.40
2012,07,06,00,13,14.40
2012,07,06,00,14,14.40
2012,07,06,00,15,14.40
2012,07,06,00,16,14.40
2012,07,06,00,17,14.40
2012,07,06,00,18,14.40
2012,07,06,00,19,14.40
2012,07,06,00,20,14.40
2012,07,06,00,21,14.30
2012,07,06,00,22,14.30
2012,07,06,00,23,14.30
2012,07,06,00,24,14.30
2012,07,06,00,25,14.30
2012,07,06,00,26,14.30
2012,07,06,00,27,14.30
2012,07,06,00,28,14.30
2012,07,06,00,29,14.20
2012,07,06,00,30,14.20
2012,07,06,00,31,14.20
2012,07,06,00,32,14.20
2012,07,06,00,33,14.20
2012,07,06,00,34,14.10
2012,07,06,00,35,14.10
2012,07,06,00,36,14.10
2012,07,06,00,37,14.10
2012,07,06,00,38,14.00
2012,07,06,00,39,14.00
2012,07,06,00,40,13.90
2012,07,06,00,41,13.90
2012,07,06,00,42,13.90
2012,07,06,00,43,13.90
2012,07,06,00,44,13.90
2012,07,06,00,45,13.90
2012,07,06,00,46,13.90
2012,07,06,00,47,13.90
2012,07,06,00,48,13.80
2012,07,06,00,49,13.80
2012,07,06,00,50,13.80
2012,07,06,00,51,13.80
2012,07,06,00,52,13.80
2012,07,06,00,53,13.70
2012,07,06,00,54,13.70
2012,07,06,00,55,13.70
2012,07,06,00,56,13.60
2012,07,06,00,57,13.60
2012,07,06,00,58,13.60
2012,07,06,00,59,13.60
2012,07,06,01,00,13.50
2012,07,06,01,01,13.50
2012,07,06,01,02,13.50
2012,07,06,01,03,13.50
2012,07,06,01,04,13.50
2012,07,06,01,05,13.50
2012,07,06,01,06,13.50
2012,07,06,01,07,13.50
2012,07,06,01,08,13.60
2012,07,06,01,09,13.60
2012,07,06,01,10,13.60
2012,07,06,01,11,13.60
2012,07,06,01,12,13.60
2012,07,06,01,13,13.60
2012,07,06,01,14,13.60
2012,07,06,01,15,13.60
2012,07,06,01,16,13.60
2012,07,06,01,17,13.60
2012,07,06,01,18,13.60
2012,07,06,01,19,13.60
2012,07,06,01,20,13.60
2012,07,06,01,21,13.50
2012,07,06,01,22,13.50
2012,07,06,01,23,13.40
2012,07,06,01,24,13.40
2012,07,06,01,25,13.40
2012,07,06,01,26,13.40
2012,07,06,01,27,13.30
2012,07,06,01,28,13.30
2012,07,06,01,29,13.30
2012,07,06,01,30,13.30
2012,07,06,01,31,13.30
2012,07,06,01,32,13.20
2012,07,06,01,33,13.20
2012,07,06,01,34,13.20
2012,07,06,01,35,13.20
2012,07,06,01,36,13.20
2012,07,06,01,37,13.20
2012,07,06,01,38,13.10
2012,07,06,01,39,13.10
2012,07,06,01,40,13.10
2012,07,06,01,41,13.10
2012,07,06,01,42,13.10
2012,07,06,01,43,13.00
2012,07,06,01,44,13.00
2012,07,06,01,45,13.00
2012,07,06,01,46,12.90
2012,07,06,01,47,12.90
2012,07,06,01,48,12.90
2012,07,06,01,49,12.90
2012,07,06,01,50,12.90
2012,07,06,01,51,12.90
2012,07,06,01,52,12.90
2012,07,06,01,53,12.90
2012,07,06,01,54,12.90
2012,07,06,01,55,12.80
2012,07,06,01,56,12.80
2012,07,06,01,57,12.80
2012,07,06,01,58,12.80
2012,07,06,01,59,12.80
2012,07,06,02,00,12.80
2012,07,06,02,01,12.80
2012,07,06,02,02,12.80
2012,07,06,02,03,12.80
2012,07,06,02,04,12.80
2012,07,06,02,05,12.70
2012,07,06,02,06,12.70
2012,07,06,02,07,12.70
2012,07,06,02,08,12.70
2012,07,06,02,09,12.70
2012,07,06,02,10,12.70
2012,07,06,02,11,12.70
2012,07,06,02,12,12.70
2012,07,06,02,13,12.70
2012,07,06,02,14,12.70
2012,07,06,02,15,12.70
2012,07,06,02,16,12.70
2012,07,06,02,17,12.70
2012,07,06,02,18,12.70
2012,07,06,02,19,12.70
2012,07,06,02,20,12.70
2012,07,06,02,21,12.60
2012,07,06,02,22,12.60
2012,07,06,02,23,12.60
2012,07,06,02,24,12.60
2012,07,06,02,25,12.60
2012,07,06,02,26,12.60
2012,07,06,02,27,12.60
2012,07,06,02,28,12.60
2012,07,06,02,29,12.60
2012,07,06,02,30,12.60
2012,07,06,02,31,12.60
2012,07,06,02,32,12.60
2012,07,06,02,33,12.50
2012,07,06,02,34,12.50
2012,07,06,02,35,12.50
2012,07,06,02,36,12.50
2012,07,06,02,37,12.50
2012,07,06,02,38,12.50
2012,07,06,02,39,12.50
2012,07,06,02,40,12.40
2012,07,06,02,41,12.40
2012,07,06,02,42,12.40
2012,07,06,02,43,12.40
2012,07,06,02,44,12.40
2012,07,06,02,45,12.40
2012,07,06,02,46,12.30
2012,07,06,02,47,12.30
2012,07,06,02,48,12.30
2012,07,06,02,49,12.30
2012,07,06,02,50,12.30
2012,07,06,02,51,12.30
2012,07,06,02,52,12.30
2012,07,06,02,53,12.30
2012,07,06,02,54,12.30
2012,07,06,02,55,12.30
2012,07,06,02,56,12.30
2012,07,06,02,57,12.30
2012,07,06,02,58,12.30
2012,07,06,02,59,12.30
2012,07,06,03,00,12.20
2012,07,06,03,01,12.20
2012,07,06,03,02,12.20
2012,07,06,03,06,12.20
2012,07,06,03,07,12.10
2012,07,06,03,08,12.10
2012,07,06,03,09,12.10
2012,07,06,03,10,12.10
2012,07,06,03,11,12.10
2012,07,06,03,12,12.10
2012,07,06,03,13,12.10
2012,07,06,03,14,12.10
2012,07,06,03,15,12.10
2012,07,06,03,16,12.00
2012,07,06,03,17,12.00
2012,07,06,03,18,12.00
2012,07,06,03,19,12.00
2012,07,06,03,20,12.00
2012,07,06,03,21,12.00
2012,07,06,03,22,12.00
2012,07,06,03,23,11.90
2012,07,06,03,24,11.90
2012,07,06,03,25,11.90
2012,07,06,03,26,11.90
2012,07,06,03,27,11.90
2012,07,06,03,28,11.90
2012,07,06,03,29,11.90
2012,07,06,03,30,11.80
2012,07,06,03,31,11.80
2012,07,06,03,32,11.80
2012,07,06,03,33,11.80
2012,07,06,03,34,11.80
2012,07,06,03,35,11.80
2012,07,06,03,36,11.80
2012,07,06,03,37,11.80
2012,07,06,03,38,11.70
2012,07,06,03,39,11.70
2012,07,06,03,40,11.70
2012,07,06,03,41,11.70
2012,07,06,03,42,11.70
2012,07,06,03,43,11.70
2012,07,06,03,44,11.70
2012,07,06,03,45,11.70
2012,07,06,03,46,11.70
2012,07,06,03,47,11.70
2012,07,06,03,48,11.70
2012,07,06,03,49,11.70
2012,07,06,03,50,11.70
2012,07,06,03,51,11.70
2012,07,06,03,52,11.70
2012,07,06,03,53,11.60
2012,07,06,03,54,11.60
2012,07,06,03,55,11.60
2012,07,06,03,56,11.60
2012,07,06,03,57,11.60
2012,07,06,03,58,11.60
2012,07,06,03,59,11.60
2012,07,06,04,00,11.60
2012,07,06,04,01,11.60
2012,07,06,04,02,11.60
2012,07,06,04,03,11.50
2012,07,06,04,04,11.50
2012,07,06,04,05,11.50
2012,07,06,04,06,11.50
2012,07,06,04,07,11.40
2012,07,06,04,08,11.40
2012,07,06,04,09,11.40
2012,07,06,04,10,11.40
2012,07,06,04,11,11.40
2012,07,06,04,12,11.40
2012,07,06,04,13,11.30
2012,07,06,04,14,11.30
2012,07,06,04,15,11.30
2012,07,06,04,16,11.20
2012,07,06,04,17,11.20
2012,07,06,04,18,11.20
2012,07,06,04,19,11.20
2012,07,06,04,20,11.20
2012,07,06,04,21,11.20
2012,07,06,04,22,11.20
2012,07,06,04,23,11.20
2012,07,06,04,24,11.20
2012,07,06,04,25,11.20
2012,07,06,04,26,11.20
2012,07,06,04,27,11.20
2012,07,06,04,28,11.20
2012,07,06,04,29,11.30
2012,07,06,04,30,11.30
2012,07,06,04,31,11.30
2012,07,06,04,32,11.30
2012,07,06,04,33,11.30
2012,07,06,04,34,11.30
2012,07,06,04,35,11.30
2012,07,06,04,36,11.30
2012,07,06,04,37,11.30
2012,07,06,04,38,11.30
2012,07,06,04,39,11.30
2012,07,06,04,40,11.30
2012,07,06,04,41,11.30
2012,07,06,04,42,11.20
2012,07,06,04,43,11.20
2012,07,06,04,44,11.20
2012,07,06,04,45,11.20
2012,07,06,04,46,11.20
2012,07,06,04,47,11.20
2012,07,06,04,48,11.20
2012,07,06,04,49,11.20
2012,07,06,04,50,11.20
2012,07,06,04,51,11.20
2012,07,06,04,52,11.20
2012,07,06,04,53,11.20
2012,07,06,04,54,11.20
2012,07,06,04,55,11.20
2012,07,06,04,56,11.20
2012,07,06,04,57,11.20
2012,07,06,04,58,11.20
2012,07,06,04,59,11.20
2012,07,06,05,00,11.20
2012,07,06,05,01,11.10
2012,07,06,05,02,11.10
2012,07,06,05,03,11.10
2012,07,06,05,04,11.10
2012,07,06,05,05,11.10
2012,07,06,05,06,11.10
2012,07,06,05,07,11.10
2012,07,06,05,08,11.10
2012,07,06,05,09,11.10
2012,07,06,05,10,11.10
2012,07,06,05,11,11.10
2012,07,06,05,12,11.10
2012,07,06,05,13,11.10
2012,07,06,05,14,11.10
2012,07,06,05,15,11.10
2012,07,06,05,16,11.00
2012,07,06,05,17,11.00
2012,07,06,05,18,11.00
2012,07,06,05,19,11.00
2012,07,06,05,20,11.00
2012,07,06,05,21,11.00
2012,07,06,05,22,11.00
2012,07,06,05,23,10.90
2012,07,06,05,24,10.90
2012,07,06,05,25,10.90
2012,07,06,05,26,10.90
2012,07,06,05,27,10.90
2012,07,06,05,28,10.90
2012,07,06,05,29,10.90
2012,07,06,05,30,10.90
2012,07,06,05,31,10.80
2012,07,06,05,32,10.80
2012,07,06,05,33,10.80
2012,07,06,05,34,10.80
2012,07,06,05,35,10.80
2012,07,06,05,36,10.80
2012,07,06,05,37,10.80
2012,07,06,05,38,10.80
2012,07,06,05,39,10.80
2012,07,06,05,40,10.80
2012,07,06,05,41,10.80
2012,07,06,05,42,10.80
2012,07,06,05,43,10.80
2012,07,06,05,44,10.70
2012,07,06,05,45,10.70
2012,07,06,05,46,10.70
2012,07,06,05,47,10.70
2012,07,06,05,48,10.70
2012,07,06,05,49,10.70
2012,07,06,05,50,10.70
2012,07,06,05,51,10.70
2012,07,06,05,52,10.70
2012,07,06,05,53,10.70
2012,07,06,05,54,10.60
2012,07,06,05,55,10.60
2012,07,06,05,56,10.60
2012,07,06,05,57,10.60
2012,07,06,05,58,10.60
2012,07,06,05,59,10.70
2012,07,06,06,00,10.70
2012,07,06,06,01,10.70
2012,07,06,06,02,10.70
2012,07,06,06,03,10.70
2012,07,06,06,04,10.80
2012,07,06,06,05,10.80
2012,07,06,06,06,10.80
2012,07,06,06,07,10.80
2012,07,06,06,08,10.80
2012,07,06,06,09,10.80
2012,07,06,06,10,10.90
2012,07,06,06,11,10.90
2012,07,06,06,12,10.90
2012,07,06,06,13,10.90
2012,07,06,06,14,10.90
2012,07,06,06,15,10.90
2012,07,06,06,16,11.00
2012,07,06,06,17,11.00
2012,07,06,06,18,11.10
2012,07,06,06,19,11.10
2012,07,06,06,20,11.10
2012,07,06,06,21,11.10
2012,07,06,06,22,11.10
2012,07,06,06,23,11.10
2012,07,06,06,24,11.10
2012,07,06,06,25,11.10
2012,07,06,06,26,11.10
2012,07,06,06,27,11.10
2012,07,06,06,28,11.10
2012,07,06,06,29,11.20
2012,07,06,06,30,11.20
2012,07,06,06,31,11.20
2012,07,06,06,32,11.20
2012,07,06,06,33,11.20
2012,07,06,06,34,11.20
2012,07,06,06,35,11.30
2012,07,06,06,36,11.30
2012,07,06,06,37,11.30
2012,07,06,06,38,11.40
2012,07,06,06,39,11.40
2012,07,06,06,40,11.40
2012,07,06,06,41,11.40
2012,07,06,06,42,11.40
2012,07,06,06,43,11.50
2012,07,06,06,44,11.50
2012,07,06,06,45,11.50
2012,07,06,06,46,11.50
2012,07,06,06,47,11.50
2012,07,06,06,48,11.50
2012,07,06,06,49,11.60
2012,07,06,06,50,11.60
2012,07,06,06,51,11.60
2012,07,06,06,52,11.60
2012,07,06,06,53,11.60
2012,07,06,06,54,11.70
2012,07,06,06,55,11.70
2012,07,06,06,56,11.80
2012,07,06,06,57,11.80
2012,07,06,06,58,11.90
2012,07,06,06,59,11.90
2012,07,06,07,00,12.00
2012,07,06,07,01,12.00
2012,07,06,07,02,12.10
2012,07,06,07,03,12.10
2012,07,06,07,04,12.20
2012,07,06,07,05,12.20
2012,07,06,07,06,12.20
2012,07,06,07,07,12.30
2012,07,06,07,08,12.30
2012,07,06,07,09,12.30
2012,07,06,07,10,12.30
2012,07,06,07,11,12.40
2012,07,06,07,12,12.40
2012,07,06,07,13,12.40
2012,07,06,07,14,12.40
2012,07,06,07,15,12.50
2012,07,06,07,16,12.50
2012,07,06,07,17,12.50
2012,07,06,07,18,12.60
2012,07,06,07,19,12.60
2012,07,06,07,20,12.70
2012,07,06,07,21,12.70
2012,07,06,07,22,12.70
2012,07,06,07,23,12.80
2012,07,06,07,24,12.80
2012,07,06,07,25,12.90
2012,07,06,07,26,13.00
2012,07,06,07,27,13.00
2012,07,06,07,28,13.10
2012,07,06,07,29,13.10
2012,07,06,07,30,13.20
2012,07,06,07,31,13.20
2012,07,06,07,32,13.30
2012,07,06,07,33,13.40
2012,07,06,07,34,13.50
2012,07,06,07,35,13.60
2012,07,06,07,36,13.60
2012,07,06,07,37,13.70
2012,07,06,07,38,13.80
2012,07,06,07,39,13.90
2012,07,06,07,40,13.90
2012,07,06,07,41,14.00
2012,07,06,07,42,14.10
2012,07,06,07,43,14.20
2012,07,06,07,44,14.20
2012,07,06,07,45,14.30
2012,07,06,07,46,14.40
2012,07,06,07,47,14.50
2012,07,06,07,48,14.60
2012,07,06,07,49,14.70
2012,07,06,07,50,14.70
2012,07,06,07,51,14.80
2012,07,06,07,52,14.80
2012,07,06,07,53,14.80
2012,07,06,07,54,14.90
2012,07,06,07,55,14.90
2012,07,06,07,56,15.00
2012,07,06,07,57,15.00
2012,07,06,07,58,15.00
2012,07,06,07,59,15.00
2012,07,06,08,00,15.10
2012,07,06,08,01,15.20
2012,07,06,08,02,15.30
2012,07,06,08,03,15.30
2012,07,06,08,04,15.40
2012,07,06,08,05,15.40
2012,07,06,08,06,15.50
2012,07,06,08,07,15.60
2012,07,06,08,08,15.70
2012,07,06,08,09,15.80
2012,07,06,08,10,15.80
2012,07,06,08,11,15.90
2012,07,06,08,12,16.00
2012,07,06,08,13,16.10
2012,07,06,08,14,16.20
2012,07,06,08,15,16.30
2012,07,06,08,16,16.30
2012,07,06,08,17,16.40
2012,07,06,08,18,16.40
2012,07,06,08,19,16.50
2012,07,06,08,20,16.60
2012,07,06,08,21,16.70
2012,07,06,08,22,16.70
2012,07,06,08,23,16.80
2012,07,06,08,24,16.80
2012,07,06,08,25,16.80
2012,07,06,08,26,16.90
2012,07,06,08,27,17.00
2012,07,06,08,28,17.10
2012,07,06,08,29,17.10
2012,07,06,08,30,17.20
2012,07,06,08,31,17.30
2012,07,06,08,32,17.40
2012,07,06,08,33,17.40
2012,07,06,08,34,17.40
2012,07,06,08,35,17.50
2012,07,06,08,36,17.50
2012,07,06,08,37,17.60
2012,07,06,08,38,17.70
2012,07,06,08,39,17.70
2012,07,06,08,40,17.70
2012,07,06,08,41,17.70
2012,07,06,08,42,17.80
2012,07,06,08,43,17.80
2012,07,06,08,44,17.80
2012,07,06,08,45,17.80
2012,07,06,08,46,17.90
2012,07,06,08,47,17.90
2012,07,06,08,48,17.90
2012,07,06,08,49,18.00
2012,07,06,08,50,18.10
2012,07,06,08,51,18.10
2012,07,06,08,52,18.20
2012,07,06,08,53,18.20
2012,07,06,08,54,18.30
2012,07,06,08,55,18.30
2012,07,06,08,56,18.30
2012,07,06,08,57,18.40
2012,07,06,08,58,18.40
2012,07,06,08,59,18.50
2012,07,06,09,00,18.50
2012,07,06,09,01,18.60
2012,07,06,09,02,18.60
2012,07,06,09,03,18.70
2012,07,06,09,04,18.80
2012,07,06,09,05,18.90
2012,07,06,09,06,18.90
2012,07,06,09,07,18.90
2012,07,06,09,08,19.00
2012,07,06,09,09,19.10
2012,07,06,09,10,19.10
2012,07,06,09,11,19.20
2012,07,06,09,12,19.20
2012,07,06,09,13,19.30
2012,07,06,09,14,19.30
2012,07,06,09,15,19.40
2012,07,06,09,16,19.40
2012,07,06,09,17,19.50
2012,07,06,09,18,19.50
2012,07,06,09,19,19.60
2012,07,06,09,20,19.70
2012,07,06,09,21,19.80
2012,07,06,09,22,19.90
2012,07,06,09,23,20.00
2012,07,06,09,24,20.10
2012,07,06,09,25,20.10
2012,07,06,09,26,20.20
2012,07,06,09,27,20.30
2012,07,06,09,28,20.40
2012,07,06,09,29,20.40
2012,07,06,09,30,20.50
2012,07,06,09,31,20.60
2012,07,06,09,32,20.60
2012,07,06,09,33,20.70
2012,07,06,09,34,20.70
2012,07,06,09,35,20.80
2012,07,06,09,36,20.90
2012,07,06,09,37,20.90
2012,07,06,09,38,21.00
2012,07,06,09,39,21.00
2012,07,06,09,40,21.00
2012,07,06,09,41,21.00
2012,07,06,09,42,21.00
2012,07,06,09,43,20.90
2012,07,06,09,44,20.90
2012,07,06,09,45,20.90
2012,07,06,09,46,20.80
2012,07,06,09,47,20.80
2012,07,06,09,48,20.70
2012,07,06,09,49,20.70
2012,07,06,09,50,20.70
2012,07,06,09,51,20.80
2012,07,06,09,52,20.80
2012,07,06,09,53,20.90
2012,07,06,09,54,20.90
2012,07,06,09,55,21.00
2012,07,06,09,56,21.00
2012,07,06,09,57,21.00
2012,07,06,09,58,21.00
2012,07,06,09,59,21.00
2012,07,06,10,00,21.00
2012,07,06,10,01,21.10
2012,07,06,10,02,21.20
2012,07,06,10,03,21.20
2012,07,06,10,04,21.30
2012,07,06,10,05,21.30
2012,07,06,10,06,21.30
2012,07,06,10,07,21.40
2012,07,06,10,08,21.40
2012,07,06,10,09,21.50
2012,07,06,10,10,21.50
2012,07,06,10,11,21.60
2012,07,06,10,12,21.60
2012,07,06,10,13,21.70
2012,07,06,10,14,21.80
2012,07,06,10,15,21.80
2012,07,06,10,16,21.90
2012,07,06,10,17,21.90
2012,07,06,10,18,21.90
2012,07,06,10,19,21.90
2012,07,06,10,20,21.90
2012,07,06,10,21,21.90
2012,07,06,10,22,22.00
2012,07,06,10,23,22.00
2012,07,06,10,24,22.10
2012,07,06,10,25,22.10
2012,07,06,10,26,22.10
2012,07,06,10,27,22.30
2012,07,06,10,28,22.30
2012,07,06,10,29,22.40
2012,07,06,10,30,22.50
2012,07,06,10,31,22.40
2012,07,06,10,32,22.40
2012,07,06,10,33,22.30
2012,07,06,10,34,22.30
2012,07,06,10,35,22.20
2012,07,06,10,36,22.10
2012,07,06,10,37,22.10
2012,07,06,10,38,22.20
2012,07,06,10,39,22.30
2012,07,06,10,40,22.40
2012,07,06,10,41,22.50
2012,07,06,10,42,22.50
2012,07,06,10,43,22.60
2012,07,06,10,44,22.60
2012,07,06,10,45,22.70
2012,07,06,10,46,22.70
2012,07,06,10,47,22.70
2012,07,06,10,48,22.70
2012,07,06,10,49,22.70
2012,07,06,10,50,22.70
2012,07,06,10,51,22.80
2012,07,06,10,52,22.80
2012,07,06,10,53,22.80
2012,07,06,10,54,22.80
2012,07,06,10,55,22.80
2012,07,06,10,56,22.90
2012,07,06,10,57,22.90
2012,07,06,10,58,23.00
2012,07,06,10,59,23.00
2012,07,06,11,00,23.10
2012,07,06,11,01,23.10
2012,07,06,11,02,23.10
2012,07,06,11,03,23.10
2012,07,06,11,04,23.20
2012,07,06,11,05,23.20
2012,07,06,11,06,23.20
2012,07,06,11,07,23.20
2012,07,06,11,08,23.20
2012,07,06,11,09,23.20
2012,07,06,11,10,23.20
2012,07,06,11,11,23.10
2012,07,06,11,12,23.10
2012,07,06,11,13,23.10
2012,07,06,11,14,23.20
2012,07,06,11,15,23.20
2012,07,06,11,16,23.20
2012,07,06,11,17,23.20
2012,07,06,11,18,23.10
2012,07,06,11,19,23.00
2012,07,06,11,20,22.90
2012,07,06,11,21,22.80
2012,07,06,11,22,22.70
2012,07,06,11,23,22.70
2012,07,06,11,24,22.70
2012,07,06,11,25,22.70
2012,07,06,11,26,22.80
2012,07,06,11,27,22.80
2012,07,06,11,28,22.90
2012,07,06,11,29,22.90
2012,07,06,11,30,23.00
2012,07,06,11,31,23.10
2012,07,06,11,32,23.20
2012,07,06,11,33,23.30
2012,07,06,11,34,23.40
2012,07,06,11,35,23.40
2012,07,06,11,36,23.30
2012,07,06,11,37,23.20
2012,07,06,11,38,23.10
2012,07,06,11,39,23.20
2012,07,06,11,40,23.20
2012,07,06,11,41,23.20
2012,07,06,11,42,23.20
2012,07,06,11,43,23.30
2012,07,06,11,44,23.30
2012,07,06,11,45,23.30
2012,07,06,11,46,23.30
2012,07,06,11,47,23.30
2012,07,06,11,48,23.30
2012,07,06,11,49,23.30
2012,07,06,11,50,23.30
2012,07,06,11,51,23.30
2012,07,06,11,52,23.40
2012,07,06,11,53,23.40
2012,07,06,11,54,23.40
2012,07,06,11,55,23.50
2012,07,06,11,56,23.50
2012,07,06,11,57,23.50
2012,07,06,11,58,23.60
2012,07,06,11,59,23.60
2012,07,06,12,00,23.50
2012,07,06,12,01,23.40
2012,07,06,12,02,23.40
2012,07,06,12,03,23.30
2012,07,06,12,04,23.30
2012,07,06,12,05,23.30
2012,07,06,12,06,23.40
2012,07,06,12,07,23.40
2012,07,06,12,08,23.30
2012,07,06,12,09,23.30
2012,07,06,12,10,23.40
2012,07,06,12,11,23.30
2012,07,06,12,12,23.20
2012,07,06,12,13,23.20
2012,07,06,12,14,23.30
2012,07,06,12,15,23.30
2012,07,06,12,16,23.30
2012,07,06,12,17,23.30
2012,07,06,12,18,23.30
2012,07,06,12,19,23.30
2012,07,06,12,20,23.40
2012,07,06,12,21,23.40
2012,07,06,12,22,23.40
2012,07,06,12,23,23.30
2012,07,06,12,24,23.30
2012,07,06,12,25,23.30
2012,07,06,12,26,23.30
2012,07,06,12,27,23.20
2012,07,06,12,28,23.20
2012,07,06,12,29,23.30
2012,07,06,12,30,23.30
2012,07,06,12,31,23.30
2012,07,06,12,32,23.40
2012,07,06,12,33,23.40
2012,07,06,12,34,23.40
2012,07,06,12,35,23.40
2012,07,06,12,36,23.40
2012,07,06,12,37,23.40
2012,07,06,12,38,23.50
2012,07,06,12,39,23.60
2012,07,06,12,40,23.60
2012,07,06,12,41,23.80
2012,07,06,12,42,23.90
2012,07,06,12,43,23.90
2012,07,06,12,44,23.90
2012,07,06,12,45,23.90
2012,07,06,12,46,24.00
2012,07,06,12,47,24.10
2012,07,06,12,48,24.10
2012,07,06,12,49,24.10
2012,07,06,12,50,24.00
2012,07,06,12,51,24.00
2012,07,06,12,52,24.10
2012,07,06,12,53,24.10
2012,07,06,12,54,24.20
2012,07,06,12,55,24.40
2012,07,06,12,56,24.50
2012,07,06,12,57,24.70
2012,07,06,12,58,24.60
2012,07,06,12,59,24.70
2012,07,06,13,00,24.60
2012,07,06,13,01,24.50
2012,07,06,13,02,24.40
2012,07,06,13,03,24.20
2012,07,06,13,04,24.10
2012,07,06,13,05,24.10
2012,07,06,13,06,24.10
2012,07,06,13,07,24.10
2012,07,06,13,08,24.10
2012,07,06,13,09,24.20
2012,07,06,13,10,24.30
2012,07,06,13,11,24.40
2012,07,06,13,12,24.50
2012,07,06,13,13,24.60
2012,07,06,13,14,24.50
2012,07,06,13,15,24.50
2012,07,06,13,16,24.40
2012,07,06,13,17,24.40
2012,07,06,13,18,24.40
2012,07,06,13,19,24.50
2012,07,06,13,20,24.50
2012,07,06,13,21,24.50
2012,07,06,13,22,24.60
2012,07,06,13,23,24.70
2012,07,06,13,24,24.80
2012,07,06,13,25,24.80
2012,07,06,13,26,24.80
2012,07,06,13,27,24.80
2012,07,06,13,28,24.70
2012,07,06,13,29,24.60
2012,07,06,13,30,24.60
2012,07,06,13,31,24.60
2012,07,06,13,32,24.60
2012,07,06,13,33,24.60
2012,07,06,13,34,24.60
2012,07,06,13,35,24.50
2012,07,06,13,36,24.60
2012,07,06,13,37,24.70
2012,07,06,13,38,24.80
2012,07,06,13,39,24.80
2012,07,06,13,40,24.80
2012,07,06,13,41,24.80
2012,07,06,13,42,24.70
2012,07,06,13,43,24.80
2012,07,06,13,44,24.80
2012,07,06,13,45,24.80
2012,07,06,13,46,24.80
2012,07,06,13,47,24.80
2012,07,06,13,48,24.80
2012,07,06,13,49,24.80
2012,07,06,13,50,24.80
2012,07,06,13,51,24.80
2012,07,06,13,52,24.90
2012,07,06,13,53,24.90
2012,07,06,13,54,24.90
2012,07,06,13,55,24.80
2012,07,06,13,56,24.80
2012,07,06,13,57,24.80
2012,07,06,13,58,24.80
2012,07,06,13,59,24.90
2012,07,06,14,00,25.00
2012,07,06,14,01,25.10
2012,07,06,14,02,25.10
2012,07,06,14,03,25.10
2012,07,06,14,04,25.00
2012,07,06,14,05,25.10
2012,07,06,14,06,25.10
2012,07,06,14,07,25.00
2012,07,06,14,08,24.90
2012,07,06,14,09,24.80
2012,07,06,14,10,24.70
2012,07,06,14,11,24.60
2012,07,06,14,12,24.50
2012,07,06,14,13,24.60
2012,07,06,14,14,24.60
2012,07,06,14,15,24.50
2012,07,06,14,16,24.40
2012,07,06,14,17,24.40
2012,07,06,14,18,24.30
2012,07,06,14,19,24.30
2012,07,06,14,20,24.30
2012,07,06,14,21,24.30
2012,07,06,14,22,24.30
2012,07,06,14,23,24.30
2012,07,06,14,24,24.30
2012,07,06,14,25,24.40
2012,07,06,14,26,24.50
2012,07,06,14,27,24.60
2012,07,06,14,28,24.70
2012,07,06,14,29,24.70
2012,07,06,14,30,24.70
2012,07,06,14,31,24.80
2012,07,06,14,32,24.90
2012,07,06,14,33,24.90
2012,07,06,14,34,24.90
2012,07,06,14,35,24.80
2012,07,06,14,36,24.70
2012,07,06,14,37,24.60
2012,07,06,14,38,24.60
2012,07,06,14,39,24.60
2012,07,06,14,40,24.60
2012,07,06,14,41,24.70
2012,07,06,14,42,24.80
2012,07,06,14,43,24.80
2012,07,06,14,44,24.80
2012,07,06,14,45,24.90
2012,07,06,14,46,24.90
2012,07,06,14,47,24.90
2012,07,06,14,48,24.80
2012,07,06,14,49,24.80
2012,07,06,14,50,24.90
2012,07,06,14,51,24.80
2012,07,06,14,52,24.80
2012,07,06,14,53,24.80
2012,07,06,14,54,24.90
2012,07,06,14,55,25.10
2012,07,06,14,56,25.10
2012,07,06,14,57,25.10
2012,07,06,14,58,25.10
2012,07,06,14,59,25.00
2012,07,06,15,00,25.00
2012,07,06,15,01,24.90
2012,07,06,15,02,24.90
2012,07,06,15,03,24.90
2012,07,06,15,04,24.90
2012,07,06,15,05,24.90
2012,07,06,15,06,25.00
2012,07,06,15,07,25.20
2012,07,06,15,08,25.30
2012,07,06,15,09,25.40
2012,07,06,15,10,25.50
2012,07,06,15,11,25.60
2012,07,06,15,12,25.60
2012,07,06,15,13,25.60
2012,07,06,15,14,25.60
2012,07,06,15,15,25.60
2012,07,06,15,16,25.50
2012,07,06,15,17,25.40
2012,07,06,15,18,25.40
2012,07,06,15,19,25.30
2012,07,06,15,20,25.30
2012,07,06,15,21,25.20
2012,07,06,15,22,25.30
2012,07,06,15,23,25.30
2012,07,06,15,24,25.30
2012,07,06,15,25,25.30
2012,07,06,15,26,25.30
2012,07,06,15,27,25.20
2012,07,06,15,28,25.20
2012,07,06,15,29,25.20
2012,07,06,15,30,25.20
2012,07,06,15,31,25.20
2012,07,06,15,32,25.30
2012,07,06,15,33,25.20
2012,07,06,15,34,25.10
2012,07,06,15,35,25.10
2012,07,06,15,36,25.10
2012,07,06,15,37,25.10
2012,07,06,15,38,25.20
2012,07,06,15,39,25.30
2012,07,06,15,40,25.30
2012,07,06,15,41,25.40
2012,07,06,15,42,25.40
2012,07,06,15,43,25.50
2012,07,06,15,44,25.50
2012,07,06,15,45,25.50
2012,07,06,15,46,25.50
2012,07,06,15,47,25.60
2012,07,06,15,48,25.60
2012,07,06,15,49,25.60
2012,07,06,15,50,25.70
2012,07,06,15,51,25.80
2012,07,06,15,52,25.90
2012,07,06,15,53,25.90
2012,07,06,15,54,25.90
2012,07,06,15,55,25.90
2012,07,06,15,56,25.90
2012,07,06,15,57,25.90
2012,07,06,15,58,25.80
2012,07,06,15,59,25.70
2012,07,06,16,00,25.70
2012,07,06,16,01,25.60
2012,07,06,16,02,25.60
2012,07,06,16,03,25.50
2012,07,06,16,04,25.40
2012,07,06,16,05,25.40
2012,07,06,16,06,25.40
2012,07,06,16,07,25.50
2012,07,06,16,08,25.60
2012,07,06,16,09,25.60
2012,07,06,16,10,25.60
2012,07,06,16,11,25.60
2012,07,06,16,12,25.60
2012,07,06,16,13,25.60
2012,07,06,16,14,25.60
2012,07,06,16,15,25.70
2012,07,06,16,16,25.80
2012,07,06,16,17,25.80
2012,07,06,16,18,25.90
2012,07,06,16,19,26.00
2012,07,06,16,20,26.10
2012,07,06,16,21,26.10
2012,07,06,16,22,26.20
2012,07,06,16,23,26.10
2012,07,06,16,24,26.10
2012,07,06,16,25,26.20
2012,07,06,16,26,26.20
2012,07,06,16,27,26.10
2012,07,06,16,28,26.00
2012,07,06,16,29,25.90
2012,07,06,16,30,25.90
2012,07,06,16,31,25.90
2012,07,06,16,32,25.90
2012,07,06,16,33,25.90
2012,07,06,16,34,25.90
2012,07,06,16,35,25.90
2012,07,06,16,36,26.00
2012,07,06,16,37,26.00
2012,07,06,16,38,26.10
2012,07,06,16,39,26.20
2012,07,06,16,40,26.20
2012,07,06,16,41,26.20
2012,07,06,16,42,26.20
2012,07,06,16,43,26.30
2012,07,06,16,44,26.30
2012,07,06,16,45,26.30
2012,07,06,16,46,26.20
2012,07,06,16,47,26.10
2012,07,06,16,48,26.10
2012,07,06,16,49,26.10
2012,07,06,16,50,26.00
2012,07,06,16,51,26.00
2012,07,06,16,52,26.10
2012,07,06,16,53,26.30
2012,07,06,16,54,26.30
2012,07,06,16,55,26.40
2012,07,06,16,56,26.40
2012,07,06,16,57,26.40
2012,07,06,16,58,26.40
2012,07,06,16,59,26.50
2012,07,06,17,00,26.50
2012,07,06,17,01,26.40
2012,07,06,17,02,26.40
2012,07,06,17,03,26.40
2012,07,06,17,04,26.40
2012,07,06,17,05,26.30
2012,07,06,17,06,26.30
2012,07,06,17,07,26.30
2012,07,06,17,08,26.20
2012,07,06,17,09,26.20
2012,07,06,17,10,26.30
2012,07,06,17,11,26.30
2012,07,06,17,12,26.30
2012,07,06,17,13,26.30
2012,07,06,17,14,26.30
2012,07,06,17,15,26.30
2012,07,06,17,16,26.30
2012,07,06,17,17,26.40
2012,07,06,17,18,26.40
2012,07,06,17,19,26.40
2012,07,06,17,20,26.50
2012,07,06,17,21,26.50
2012,07,06,17,22,26.40